Time,TemperatureF,DewpointF,PressureIn,WindDirection,WindDirectionDegrees,WindSpeedMPH,WindSpeedGustMPH,Humidity,HourlyPrecipIn,Conditions,Clouds,dailyrainin,SoftwareType,DateUTC
2013-03-24 00:00:00,32.4,17.5,29.57,WSW,247,0.0,0.0,54,0.00,,,0.00,WUHU21623XXSP,2013-03-24 04:00:00,
2013-03-24 00:05:00,32.4,17.5,29.58,WSW,247,0.0,0.0,54,0.00,,,0.00,WUHU21623XXSP,2013-03-24 04:05:00,
2013-03-24 00:10:00,32.2,17.5,29.57,WSW,247,0.0,0.0,54,0.00,,,0.00,WUHU21623XXSP,2013-03-24 04:10:00,
2013-03-24 00:15:00,32.2,17.8,29.57,WSW,247,0.0,0.0,55,0.00,,,0.00,WUHU21623XXSP,2013-03-24 04:15:00,
2013-03-24 00:20:00,32.2,17.8,29.57,WSW,247,0.0,0.0,55,0.00,,,0.00,WUHU21623XXSP,2013-03-24 04:20:00,
2013-03-24 00:25:00,32.2,18.2,29.57,WSW,247,0.0,0.0,56,0.00,,,0.00,WUHU21623XXSP,2013-03-24 04:25:00,
2013-03-24 00:30:00,32.2,18.2,29.57,WSW,247,0.0,1.8,56,0.00,,,0.00,WUHU21623XXSP,2013-03-24 04:30:00,
2013-03-24 00:35:00,32.2,18.2,29.57,WSW,247,0.0,1.8,56,0.00,,,0.00,WUHU21623XXSP,2013-03-24 04:35:00,
2013-03-24 00:40:00,32.2,18.2,29.57,West,270,0.0,0.0,56,0.00,,,0.00,WUHU21623XXSP,2013-03-24 04:40:00,
2013-03-24 00:45:00,32.2,18.2,29.57,West,270,0.0,0.0,56,0.00,,,0.00,WUHU21623XXSP,2013-03-24 04:45:00,
2013-03-24 00:50:00,32.0,18.2,29.57,West,270,0.0,0.0,56,0.00,,,0.00,WUHU21623XXSP,2013-03-24 04:50:00,
2013-03-24 00:55:00,31.8,17.9,29.57,West,270,2.5,2.5,56,0.00,,,0.00,WUHU21623XXSP,2013-03-24 04:55:00,
2013-03-24 01:00:00,31.8,17.9,29.57,West,270,1.6,2.5,56,0.00,,,0.00,WUHU21623XXSP,2013-03-24 05:00:00,
2013-03-24 01:05:00,31.8,17.9,29.57,West,270,1.6,2.5,56,0.00,,,0.00,WUHU21623XXSP,2013-03-24 05:05:00,
2013-03-24 01:10:00,31.6,18.1,29.57,West,270,0.0,2.7,57,0.00,,,0.00,WUHU21623XXSP,2013-03-24 05:10:00,
2013-03-24 01:15:00,31.6,18.1,29.58,West,270,2.5,2.7,57,0.00,,,0.00,WUHU21623XXSP,2013-03-24 05:15:00,
2013-03-24 01:20:00,31.6,18.1,29.57,West,270,4.5,4.5,57,0.00,,,0.00,WUHU21623XXSP,2013-03-24 05:20:00,
2013-03-24 01:25:00,31.6,18.1,29.57,West,270,4.5,4.5,57,0.00,,,0.00,WUHU21623XXSP,2013-03-24 05:25:00,
2013-03-24 01:30:00,31.6,18.1,29.57,West,270,0.0,4.5,57,0.00,,,0.00,WUHU21623XXSP,2013-03-24 05:30:00,
2013-03-24 01:35:00,31.6,18.1,29.58,West,270,0.0,4.0,57,0.00,,,0.00,WUHU21623XXSP,2013-03-24 05:35:00,
2013-03-24 01:40:00,31.6,18.1,29.57,WNW,292,0.0,4.0,57,0.00,,,0.00,WUHU21623XXSP,2013-03-24 05:40:00,
2013-03-24 01:45:00,31.3,17.8,29.58,West,270,0.0,0.9,57,0.00,,,0.00,WUHU21623XXSP,2013-03-24 05:45:00,
2013-03-24 01:50:00,31.3,17.8,29.58,West,270,0.0,0.9,57,0.00,,,0.00,WUHU21623XXSP,2013-03-24 05:50:00,
2013-03-24 01:55:00,31.3,17.8,29.58,West,270,1.8,4.7,57,0.00,,,0.00,WUHU21623XXSP,2013-03-24 05:55:00,
2013-03-24 02:00:00,31.3,17.8,29.58,West,270,0.0,4.7,57,0.00,,,0.00,WUHU21623XXSP,2013-03-24 06:00:00,
2013-03-24 02:05:00,31.1,17.6,29.57,West,270,2.2,4.0,57,0.00,,,0.00,WUHU21623XXSP,2013-03-24 06:05:00,
2013-03-24 02:10:00,31.1,18.0,29.57,WSW,247,0.0,4.0,58,0.00,,,0.00,WUHU21623XXSP,2013-03-24 06:10:00,
2013-03-24 02:15:00,31.1,18.0,29.57,WSW,247,0.0,0.0,58,0.00,,,0.00,WUHU21623XXSP,2013-03-24 06:15:00,
2013-03-24 02:20:00,31.1,18.0,29.57,West,270,4.0,4.0,58,0.00,,,0.00,WUHU21623XXSP,2013-03-24 06:20:00,
2013-03-24 02:25:00,30.9,17.8,29.58,West,270,2.0,4.0,58,0.00,,,0.00,WUHU21623XXSP,2013-03-24 06:25:00,
2013-03-24 02:30:00,30.9,17.8,29.57,West,270,4.0,7.6,58,0.00,,,0.00,WUHU21623XXSP,2013-03-24 06:30:00,
2013-03-24 02:35:00,30.9,18.2,29.57,West,270,4.0,7.6,59,0.00,,,0.00,WUHU21623XXSP,2013-03-24 06:35:00,
2013-03-24 02:40:00,30.9,18.2,29.57,West,270,2.5,7.2,59,0.00,,,0.00,WUHU21623XXSP,2013-03-24 06:40:00,
2013-03-24 02:45:00,30.9,18.2,29.56,WSW,247,6.0,6.0,59,0.00,,,0.00,WUHU21623XXSP,2013-03-24 06:45:00,
2013-03-24 02:50:00,30.7,18.1,29.56,West,270,4.3,6.0,59,0.00,,,0.00,WUHU21623XXSP,2013-03-24 06:50:00,
2013-03-24 02:55:00,30.7,18.5,29.56,West,270,8.7,8.7,60,0.00,,,0.00,WUHU21623XXSP,2013-03-24 06:55:00,
2013-03-24 03:00:00,30.7,18.5,29.56,WSW,247,5.1,8.7,60,0.00,,,0.00,WUHU21623XXSP,2013-03-24 07:00:00,
2013-03-24 03:05:00,30.7,18.5,29.56,WSW,247,4.0,6.3,60,0.00,,,0.00,WUHU21623XXSP,2013-03-24 07:05:00,
2013-03-24 03:10:00,30.7,18.5,29.56,West,270,6.7,6.7,60,0.00,,,0.00,WUHU21623XXSP,2013-03-24 07:10:00,
2013-03-24 03:15:00,30.7,18.9,29.56,WSW,247,5.4,6.7,61,0.00,,,0.00,WUHU21623XXSP,2013-03-24 07:15:00,
2013-03-24 03:20:00,30.7,18.9,29.56,West,270,3.4,5.4,61,0.00,,,0.00,WUHU21623XXSP,2013-03-24 07:20:00,
2013-03-24 03:25:00,30.9,18.9,29.55,West,270,3.4,3.4,61,0.00,,,0.00,WUHU21623XXSP,2013-03-24 07:25:00,
2013-03-24 03:30:00,30.7,19.0,29.55,WNW,292,0.9,6.9,61,0.00,,,0.00,WUHU21623XXSP,2013-03-24 07:30:00,
2013-03-24 03:35:00,30.7,18.9,29.55,WNW,292,6.5,6.9,61,0.00,,,0.00,WUHU21623XXSP,2013-03-24 07:35:00,
2013-03-24 03:40:00,30.7,18.9,29.55,WSW,247,0.0,6.5,61,0.00,,,0.00,WUHU21623XXSP,2013-03-24 07:40:00,
2013-03-24 03:45:00,30.7,18.9,29.55,WNW,292,0.0,3.1,61,0.00,,,0.00,WUHU21623XXSP,2013-03-24 07:45:00,
2013-03-24 03:50:00,30.7,18.9,29.55,West,270,6.5,6.5,61,0.00,,,0.00,WUHU21623XXSP,2013-03-24 07:50:00,
2013-03-24 03:55:00,30.7,18.9,29.55,West,270,1.1,6.5,61,0.00,,,0.00,WUHU21623XXSP,2013-03-24 07:55:00,
2013-03-24 04:00:00,30.7,18.9,29.55,West,270,4.0,6.5,61,0.00,,,0.00,WUHU21623XXSP,2013-03-24 08:00:00,
2013-03-24 04:05:00,30.7,18.9,29.55,West,270,1.8,4.0,61,0.00,,,0.00,WUHU21623XXSP,2013-03-24 08:05:00,
2013-03-24 04:10:00,30.7,19.2,29.55,SW,225,4.3,4.3,62,0.00,,,0.00,WUHU21623XXSP,2013-03-24 08:10:00,
2013-03-24 04:15:00,30.7,19.2,29.54,West,270,2.5,7.6,62,0.00,,,0.00,WUHU21623XXSP,2013-03-24 08:15:00,
2013-03-24 04:20:00,30.7,19.2,29.54,WSW,247,7.2,7.6,62,0.00,,,0.00,WUHU21623XXSP,2013-03-24 08:20:00,
2013-03-24 04:25:00,30.7,19.2,29.54,West,270,5.6,7.2,62,0.00,,,0.00,WUHU21623XXSP,2013-03-24 08:25:00,
2013-03-24 04:30:00,30.7,19.2,29.54,West,270,3.4,5.6,62,0.00,,,0.00,WUHU21623XXSP,2013-03-24 08:30:00,
2013-03-24 04:35:00,30.7,19.6,29.54,West,270,3.4,5.6,62,0.00,,,0.00,WUHU21623XXSP,2013-03-24 08:35:00,
2013-03-24 04:40:00,30.7,19.2,29.54,WNW,292,0.0,3.4,62,0.00,,,0.00,WUHU21623XXSP,2013-03-24 08:40:00,
2013-03-24 04:45:00,30.7,19.2,29.54,WNW,292,2.5,2.5,62,0.00,,,0.00,WUHU21623XXSP,2013-03-24 08:45:00,
2013-03-24 04:50:00,30.7,19.2,29.54,WNW,292,3.6,3.6,62,0.00,,,0.00,WUHU21623XXSP,2013-03-24 08:50:00,
2013-03-24 04:55:00,30.7,19.6,29.54,West,270,5.1,5.1,63,0.00,,,0.00,WUHU21623XXSP,2013-03-24 08:55:00,
2013-03-24 05:00:00,30.7,19.6,29.55,West,270,3.6,8.1,63,0.00,,,0.00,WUHU21623XXSP,2013-03-24 09:00:00,
2013-03-24 05:05:00,30.7,19.2,29.55,West,270,0.0,8.1,62,0.00,,,0.00,WUHU21623XXSP,2013-03-24 09:05:00,
2013-03-24 05:10:00,30.6,19.4,29.55,West,270,1.1,3.6,63,0.00,,,0.00,WUHU21623XXSP,2013-03-24 09:10:00,
2013-03-24 05:15:00,30.4,19.2,29.55,West,270,0.0,1.1,63,0.00,,,0.00,WUHU21623XXSP,2013-03-24 09:15:00,
2013-03-24 05:20:00,30.2,19.0,29.55,West,270,0.0,0.0,63,0.00,,,0.00,WUHU21623XXSP,2013-03-24 09:20:00,
2013-03-24 05:25:00,30.2,19.0,29.55,WNW,292,0.0,0.0,63,0.00,,,0.00,WUHU21623XXSP,2013-03-24 09:25:00,
2013-03-24 05:30:00,30.2,19.0,29.55,WSW,247,0.0,0.0,63,0.00,,,0.00,WUHU21623XXSP,2013-03-24 09:30:00,
2013-03-24 05:35:00,30.2,19.0,29.54,WNW,292,2.0,2.0,63,0.00,,,0.00,WUHU21623XXSP,2013-03-24 09:35:00,
2013-03-24 05:40:00,30.2,19.0,29.55,West,270,1.3,2.0,63,0.00,,,0.00,WUHU21623XXSP,2013-03-24 09:40:00,
2013-03-24 05:45:00,30.0,18.9,29.55,West,270,0.0,1.3,63,0.00,,,0.00,WUHU21623XXSP,2013-03-24 09:45:00,
2013-03-24 05:50:00,30.0,18.9,29.55,West,270,0.0,0.0,63,0.00,,,0.00,WUHU21623XXSP,2013-03-24 09:50:00,
2013-03-24 05:55:00,30.0,18.9,29.55,West,270,0.0,0.0,63,0.00,,,0.00,WUHU21623XXSP,2013-03-24 09:55:00,
2013-03-24 06:00:00,30.0,18.9,29.55,West,270,0.0,0.0,63,0.00,,,0.00,WUHU21623XXSP,2013-03-24 10:00:00,
2013-03-24 06:05:00,30.0,18.9,29.55,West,270,0.0,0.0,63,0.00,,,0.00,WUHU21623XXSP,2013-03-24 10:05:00,
2013-03-24 06:10:00,30.0,18.9,29.55,West,270,0.0,0.0,63,0.00,,,0.00,WUHU21623XXSP,2013-03-24 10:10:00,
2013-03-24 06:15:00,30.0,18.9,29.57,NW,315,0.0,0.0,63,0.00,,,0.00,WUHU21623XXSP,2013-03-24 10:15:00,
2013-03-24 06:20:00,29.8,18.7,29.58,NW,315,1.6,1.6,63,0.00,,,0.00,WUHU21623XXSP,2013-03-24 10:20:00,
2013-03-24 06:25:00,29.8,18.7,29.58,WNW,292,0.0,1.6,63,0.00,,,0.00,WUHU21623XXSP,2013-03-24 10:25:00,
2013-03-24 06:30:00,29.8,18.7,29.58,West,270,0.0,1.1,63,0.00,,,0.00,WUHU21623XXSP,2013-03-24 10:30:00,
2013-03-24 06:35:00,29.8,18.7,29.58,WNW,292,5.1,5.1,63,0.00,,,0.00,WUHU21623XXSP,2013-03-24 10:35:00,
2013-03-24 06:40:00,29.7,18.9,29.58,West,270,1.8,5.1,64,0.00,,,0.00,WUHU21623XXSP,2013-03-24 10:40:00,
2013-03-24 06:45:00,29.7,18.9,29.58,West,270,2.9,4.0,64,0.00,,,0.00,WUHU21623XXSP,2013-03-24 10:45:00,
2013-03-24 06:50:00,29.7,18.9,29.59,WNW,292,2.0,4.0,64,0.00,,,0.00,WUHU21623XXSP,2013-03-24 10:50:00,
2013-03-24 06:55:00,29.7,18.9,29.58,West,270,2.9,4.3,64,0.00,,,0.00,WUHU21623XXSP,2013-03-24 10:55:00,
2013-03-24 07:00:00,29.5,18.8,29.58,NW,315,2.5,4.3,64,0.00,,,0.00,WUHU21623XXSP,2013-03-24 11:00:00,
2013-03-24 07:05:00,29.7,18.9,29.58,West,270,0.0,2.5,64,0.00,,,0.00,WUHU21623XXSP,2013-03-24 11:05:00,
2013-03-24 07:10:00,29.7,18.9,29.58,West,270,3.6,3.6,64,0.00,,,0.00,WUHU21623XXSP,2013-03-24 11:10:00,
2013-03-24 07:15:00,29.8,19.1,29.59,West,270,0.0,3.6,64,0.00,,,0.00,WUHU21623XXSP,2013-03-24 11:15:00,
2013-03-24 07:20:00,30.0,19.2,29.59,NW,315,2.5,3.4,64,0.00,,,0.00,WUHU21623XXSP,2013-03-24 11:20:00,
2013-03-24 07:25:00,30.2,19.4,29.59,WNW,292,2.5,8.9,64,0.00,,,0.00,WUHU21623XXSP,2013-03-24 11:25:00,
2013-03-24 07:30:00,30.4,19.6,29.59,WSW,247,4.5,8.9,64,0.00,,,0.00,WUHU21623XXSP,2013-03-24 11:30:00,
2013-03-24 07:35:00,30.7,19.9,29.59,West,270,6.0,6.7,64,0.00,,,0.00,WUHU21623XXSP,2013-03-24 11:35:00,
2013-03-24 07:40:00,31.3,20.5,29.59,SW,225,5.8,6.0,64,0.00,,,0.00,WUHU21623XXSP,2013-03-24 11:40:00,
2013-03-24 07:45:00,31.6,20.5,29.59,NW,315,0.0,5.8,63,0.00,,,0.00,WUHU21623XXSP,2013-03-24 11:45:00,
2013-03-24 07:50:00,31.8,20.7,29.59,WNW,292,0.0,1.6,63,0.00,,,0.00,WUHU21623XXSP,2013-03-24 11:50:00,
2013-03-24 07:55:00,31.8,20.7,29.59,NW,315,1.1,7.2,63,0.00,,,0.00,WUHU21623XXSP,2013-03-24 11:55:00,
2013-03-24 08:00:00,31.8,20.3,29.59,WNW,292,4.3,7.2,62,0.00,,,0.00,WUHU21623XXSP,2013-03-24 12:00:00,
2013-03-24 08:05:00,32.2,20.6,29.59,WSW,247,6.0,6.7,62,0.00,,,0.00,WUHU21623XXSP,2013-03-24 12:05:00,
2013-03-24 08:10:00,32.4,20.8,29.58,West,270,0.0,6.0,62,0.00,,,0.00,WUHU21623XXSP,2013-03-24 12:10:00,
2013-03-24 08:15:00,32.5,21.0,29.58,West,270,1.8,5.6,62,0.00,,,0.00,WUHU21623XXSP,2013-03-24 12:15:00,
2013-03-24 08:20:00,32.9,21.3,29.58,WNW,292,2.0,5.6,62,0.00,,,0.00,WUHU21623XXSP,2013-03-24 12:20:00,
2013-03-24 08:25:00,33.1,21.1,29.58,West,270,0.7,2.5,61,0.00,,,0.00,WUHU21623XXSP,2013-03-24 12:25:00,
2013-03-24 08:30:00,33.6,21.6,29.58,West,270,5.1,5.1,61,0.00,,,0.00,WUHU21623XXSP,2013-03-24 12:30:00,
2013-03-24 08:35:00,34.0,21.6,29.58,NW,315,0.0,5.1,60,0.00,,,0.00,WUHU21623XXSP,2013-03-24 12:35:00,
2013-03-24 08:40:00,34.3,21.9,29.57,SW,225,0.0,0.7,60,0.00,,,0.00,WUHU21623XXSP,2013-03-24 12:40:00,
2013-03-24 08:45:00,34.9,22.5,29.57,West,270,0.0,0.0,60,0.00,,,0.00,WUHU21623XXSP,2013-03-24 12:45:00,
2013-03-24 08:50:00,35.4,22.6,29.57,WNW,292,0.0,0.0,59,0.00,,,0.00,WUHU21623XXSP,2013-03-24 12:50:00,
2013-03-24 08:55:00,35.8,22.9,29.57,WSW,247,4.5,4.5,59,0.00,,,0.00,WUHU21623XXSP,2013-03-24 12:55:00,
2013-03-24 09:00:00,36.5,23.1,29.57,WNW,292,2.7,4.5,58,0.00,,,0.00,WUHU21623XXSP,2013-03-24 13:00:00,
2013-03-24 09:05:00,37.0,23.2,29.57,WNW,292,0.9,3.4,57,0.00,,,0.00,WUHU21623XXSP,2013-03-24 13:05:00,
2013-03-24 09:10:00,37.4,23.1,29.58,NW,315,4.0,4.0,56,0.00,,,0.00,WUHU21623XXSP,2013-03-24 13:10:00,
2013-03-24 09:15:00,37.9,23.1,29.58,WNW,292,0.0,4.0,55,0.00,,,0.00,WUHU21623XXSP,2013-03-24 13:15:00,
2013-03-24 09:20:00,38.3,23.4,29.58,NW,315,2.0,2.0,55,0.00,,,0.00,WUHU21623XXSP,2013-03-24 13:20:00,
2013-03-24 09:25:00,39.0,23.7,29.58,South,180,0.0,2.0,54,0.00,,,0.00,WUHU21623XXSP,2013-03-24 13:25:00,
2013-03-24 09:30:00,39.4,24.0,29.58,West,270,7.2,7.2,54,0.00,,,0.00,WUHU21623XXSP,2013-03-24 13:30:00,
2013-03-24 09:35:00,39.7,24.3,29.59,SSW,202,0.0,7.2,54,0.00,,,0.00,WUHU21623XXSP,2013-03-24 13:35:00,
2013-03-24 09:40:00,39.9,24.1,29.59,WSW,247,0.0,4.0,53,0.00,,,0.00,WUHU21623XXSP,2013-03-24 13:40:00,
2013-03-24 09:45:00,40.3,24.4,29.59,NW,315,2.9,6.0,53,0.00,,,0.00,WUHU21623XXSP,2013-03-24 13:45:00,
2013-03-24 09:50:00,40.6,24.3,29.59,West,270,5.1,6.0,52,0.00,,,0.00,WUHU21623XXSP,2013-03-24 13:50:00,
2013-03-24 09:55:00,40.8,24.0,29.59,WNW,292,0.0,5.1,51,0.00,,,0.00,WUHU21623XXSP,2013-03-24 13:55:00,
2013-03-24 10:00:00,41.4,24.1,29.58,NW,315,0.0,4.7,50,0.00,,,0.00,WUHU21623XXSP,2013-03-24 14:00:00,
2013-03-24 10:05:00,41.7,24.4,29.59,WNW,292,4.0,6.5,50,0.00,,,0.00,WUHU21623XXSP,2013-03-24 14:05:00,
2013-03-24 10:10:00,41.9,24.1,29.59,West,270,2.5,6.5,49,0.00,,,0.00,WUHU21623XXSP,2013-03-24 14:10:00,
2013-03-24 10:15:00,42.1,24.3,29.59,West,270,6.3,6.3,49,0.00,,,0.00,WUHU21623XXSP,2013-03-24 14:15:00,
2013-03-24 10:20:00,42.4,24.6,29.59,West,270,2.9,8.5,49,0.00,,,0.00,WUHU21623XXSP,2013-03-24 14:20:00,
2013-03-24 10:25:00,42.6,24.3,29.58,WSW,247,4.0,8.5,48,0.00,,,0.00,WUHU21623XXSP,2013-03-24 14:25:00,
2013-03-24 10:30:00,43.0,24.1,29.59,NNW,337,3.1,7.4,47,0.00,,,0.00,WUHU21623XXSP,2013-03-24 14:30:00,
2013-03-24 10:35:00,43.5,24.5,29.59,NNW,337,0.0,3.1,47,0.00,,,0.00,WUHU21623XXSP,2013-03-24 14:35:00,
2013-03-24 10:40:00,43.9,24.9,29.59,West,270,2.5,3.6,47,0.00,,,0.00,WUHU21623XXSP,2013-03-24 14:40:00,
2013-03-24 10:45:00,44.2,25.0,29.59,WSW,247,0.0,3.6,47,0.00,,,0.00,WUHU21623XXSP,2013-03-24 14:45:00,
2013-03-24 10:50:00,44.8,25.1,29.59,West,270,0.0,0.0,46,0.00,,,0.00,WUHU21623XXSP,2013-03-24 14:50:00,
2013-03-24 10:55:00,45.0,25.1,29.58,West,270,0.0,4.7,46,0.00,,,0.00,WUHU21623XXSP,2013-03-24 14:55:00,
2013-03-24 11:00:00,45.3,25.1,29.58,WNW,292,0.0,4.7,45,0.00,,,0.00,WUHU21623XXSP,2013-03-24 15:00:00,
2013-03-24 11:05:00,45.7,25.4,29.58,NNW,337,0.0,2.2,45,0.00,,,0.00,WUHU21623XXSP,2013-03-24 15:05:00,
2013-03-24 11:10:00,46.2,25.4,29.58,WNW,292,10.1,10.1,44,0.00,,,0.00,WUHU21623XXSP,2013-03-24 15:10:00,
2013-03-24 11:15:00,46.6,25.7,29.58,WNW,292,10.1,10.1,44,0.00,,,0.00,WUHU21623XXSP,2013-03-24 15:15:00,
2013-03-24 11:20:00,46.6,25.7,29.58,West,270,4.3,10.1,44,0.00,,,0.00,WUHU21623XXSP,2013-03-24 15:20:00,
2013-03-24 11:25:00,46.8,25.8,29.58,WSW,247,3.1,10.1,44,0.00,,,0.00,WUHU21623XXSP,2013-03-24 15:25:00,
2013-03-24 11:30:00,47.3,26.2,29.58,WSW,247,0.0,4.9,44,0.00,,,0.00,WUHU21623XXSP,2013-03-24 15:30:00,
2013-03-24 11:35:00,48.0,27.0,29.57,SW,225,4.9,4.9,44,0.00,,,0.00,WUHU21623XXSP,2013-03-24 15:35:00,
2013-03-24 11:40:00,48.7,27.3,29.57,WSW,247,1.1,4.9,44,0.00,,,0.00,WUHU21623XXSP,2013-03-24 15:40:00,
2013-03-24 11:45:00,48.9,26.7,29.58,SW,225,2.7,3.4,42,0.00,,,0.00,WUHU21623XXSP,2013-03-24 15:45:00,
2013-03-24 11:50:00,48.4,26.5,29.58,WSW,247,6.5,6.5,42,0.00,,,0.00,WUHU21623XXSP,2013-03-24 15:50:00,
2013-03-24 11:55:00,47.7,25.6,29.58,West,270,0.0,6.5,43,0.00,,,0.00,WUHU21623XXSP,2013-03-24 15:55:00,
2013-03-24 12:00:00,48.0,25.9,29.58,West,270,0.0,0.0,42,0.00,,,0.00,WUHU21623XXSP,2013-03-24 16:00:00,
2013-03-24 12:05:00,48.2,26.4,29.58,West,270,2.9,2.9,42,0.00,,,0.00,WUHU21623XXSP,2013-03-24 16:05:00,
2013-03-24 12:10:00,48.4,26.2,29.57,West,270,2.9,2.9,42,0.00,,,0.00,WUHU21623XXSP,2013-03-24 16:10:00,
2013-03-24 12:15:00,49.3,26.5,29.58,WSW,247,6.9,6.9,43,0.00,,,0.00,WUHU21623XXSP,2013-03-24 16:15:00,
2013-03-24 12:20:00,50.2,27.9,29.57,WSW,247,0.0,6.9,42,0.00,,,0.00,WUHU21623XXSP,2013-03-24 16:20:00,
2013-03-24 12:25:00,50.5,27.6,29.56,SE,135,2.2,2.2,41,0.00,,,0.00,WUHU21623XXSP,2013-03-24 16:25:00,
2013-03-24 12:30:00,50.9,27.8,29.56,SSE,157,2.9,2.9,41,0.00,,,0.00,WUHU21623XXSP,2013-03-24 16:30:00,
2013-03-24 12:35:00,51.4,27.9,29.57,West,270,1.1,2.9,40,0.00,,,0.00,WUHU21623XXSP,2013-03-24 16:35:00,
2013-03-24 12:40:00,51.1,27.6,29.56,SW,225,0.0,1.1,40,0.00,,,0.00,WUHU21623XXSP,2013-03-24 16:40:00,
2013-03-24 12:45:00,51.1,27.6,29.56,SW,225,0.0,1.1,40,0.00,,,0.00,WUHU21623XXSP,2013-03-24 16:45:00,
2013-03-24 12:50:00,49.8,26.4,29.56,SW,225,0.0,0.0,39,0.00,,,0.00,WUHU21623XXSP,2013-03-24 16:50:00,
2013-03-24 12:55:00,49.8,26.4,29.56,West,270,0.0,2.7,40,0.00,,,0.00,WUHU21623XXSP,2013-03-24 16:55:00,
2013-03-24 13:00:00,49.6,25.6,29.56,WSW,247,0.0,4.3,39,0.00,,,0.00,WUHU21623XXSP,2013-03-24 17:00:00,
2013-03-24 13:05:00,49.6,26.3,29.56,WSW,247,6.3,6.3,40,0.00,,,0.00,WUHU21623XXSP,2013-03-24 17:05:00,
2013-03-24 13:10:00,50.2,26.1,29.55,NW,315,2.2,6.3,39,0.00,,,0.00,WUHU21623XXSP,2013-03-24 17:10:00,
2013-03-24 13:15:00,50.4,27.5,29.55,WSW,247,0.0,6.3,41,0.00,,,0.00,WUHU21623XXSP,2013-03-24 17:15:00,
2013-03-24 13:20:00,51.4,28.5,29.55,SW,225,0.0,3.4,41,0.00,,,0.00,WUHU21623XXSP,2013-03-24 17:20:00,
2013-03-24 13:25:00,51.4,27.9,29.55,SW,225,0.0,0.0,40,0.00,,,0.00,WUHU21623XXSP,2013-03-24 17:25:00,
2013-03-24 13:30:00,51.1,26.9,29.55,North,0,0.0,7.4,39,0.00,,,0.00,WUHU21623XXSP,2013-03-24 17:30:00,
2013-03-24 13:35:00,50.5,26.4,29.55,North,0,0.0,7.4,39,0.00,,,0.00,WUHU21623XXSP,2013-03-24 17:35:00,
2013-03-24 13:40:00,50.9,26.7,29.54,NW,315,0.0,3.6,39,0.00,,,0.00,WUHU21623XXSP,2013-03-24 17:40:00,
2013-03-24 13:45:00,50.9,26.7,29.54,WNW,292,0.0,0.0,39,0.00,,,0.00,WUHU21623XXSP,2013-03-24 17:45:00,
2013-03-24 13:50:00,50.5,26.4,29.55,NNW,337,0.0,0.0,39,0.00,,,0.00,WUHU21623XXSP,2013-03-24 17:50:00,
2013-03-24 13:55:00,50.9,27.4,29.54,WSW,247,6.3,7.2,40,0.00,,,0.00,WUHU21623XXSP,2013-03-24 17:55:00,
2013-03-24 14:00:00,51.6,27.4,29.54,WSW,247,2.9,7.2,39,0.00,,,0.00,WUHU21623XXSP,2013-03-24 18:00:00,
2013-03-24 14:05:00,52.0,27.4,29.54,SSE,157,3.1,3.6,39,0.00,,,0.00,WUHU21623XXSP,2013-03-24 18:05:00,
2013-03-24 14:10:00,51.8,26.9,29.53,NE,45,0.0,3.4,38,0.00,,,0.00,WUHU21623XXSP,2013-03-24 18:10:00,
2013-03-24 14:15:00,52.0,27.7,29.54,WNW,292,0.0,3.4,39,0.00,,,0.00,WUHU21623XXSP,2013-03-24 18:15:00,
2013-03-24 14:20:00,52.3,27.3,29.54,NNE,22,0.0,0.0,38,0.00,,,0.00,WUHU21623XXSP,2013-03-24 18:20:00,
2013-03-24 14:25:00,51.6,26.0,29.53,NNW,337,0.0,2.2,37,0.00,,,0.00,WUHU21623XXSP,2013-03-24 18:25:00,
2013-03-24 14:30:00,51.3,25.8,29.53,NNE,22,0.0,2.2,38,0.00,,,0.00,WUHU21623XXSP,2013-03-24 18:30:00,
2013-03-24 14:35:00,51.3,27.1,29.53,NW,315,2.2,2.2,39,0.00,,,0.00,WUHU21623XXSP,2013-03-24 18:35:00,
2013-03-24 14:40:00,51.6,27.4,29.53,North,0,0.0,2.2,39,0.00,,,0.00,WUHU21623XXSP,2013-03-24 18:40:00,
2013-03-24 14:45:00,51.8,27.5,29.52,NE,45,3.4,3.4,39,0.00,,,0.00,WUHU21623XXSP,2013-03-24 18:45:00,
2013-03-24 14:50:00,51.8,27.5,29.52,NE,45,0.0,4.9,39,0.00,,,0.00,WUHU21623XXSP,2013-03-24 18:50:00,
2013-03-24 14:55:00,52.2,27.2,29.52,NE,45,0.0,4.9,38,0.00,,,0.00,WUHU21623XXSP,2013-03-24 18:55:00,
2013-03-24 15:00:00,52.0,27.0,29.52,NE,45,0.0,2.9,38,0.00,,,0.00,WUHU21623XXSP,2013-03-24 19:00:00,
2013-03-24 15:05:00,51.6,26.7,29.52,NE,45,0.0,2.9,38,0.00,,,0.00,WUHU21623XXSP,2013-03-24 19:05:00,
2013-03-24 15:11:00,51.6,27.4,29.52,West,270,2.2,2.9,39,0.00,,,0.00,WUHU21623XXSP,2013-03-24 19:11:00,
2013-03-24 15:16:00,52.0,27.7,29.52,WSW,247,2.0,7.4,39,0.00,,,0.00,WUHU21623XXSP,2013-03-24 19:16:00,
2013-03-24 15:21:00,52.2,27.2,29.51,SW,225,0.0,7.4,38,0.00,,,0.00,WUHU21623XXSP,2013-03-24 19:21:00,
2013-03-24 15:26:00,52.2,27.2,29.51,SW,225,0.0,0.0,38,0.00,,,0.00,WUHU21623XXSP,2013-03-24 19:26:00,
2013-03-24 15:31:00,52.2,27.3,29.51,NNE,22,3.8,3.8,38,0.00,,,0.00,WUHU21623XXSP,2013-03-24 19:31:00,
2013-03-24 15:36:00,52.2,27.2,29.51,WNW,292,0.0,3.8,38,0.00,,,0.00,WUHU21623XXSP,2013-03-24 19:36:00,
2013-03-24 15:41:00,52.2,27.2,29.50,SW,225,0.0,0.7,38,0.00,,,0.00,WUHU21623XXSP,2013-03-24 19:41:00,
2013-03-24 15:45:00,52.2,27.2,29.50,WSW,247,0.0,1.8,38,0.00,,,0.00,WUHU21623XXSP,2013-03-24 19:45:00,
2013-03-24 15:50:00,52.3,27.3,29.50,WNW,292,0.0,1.8,38,0.00,,,0.00,WUHU21623XXSP,2013-03-24 19:50:00,
2013-03-24 15:55:00,52.2,27.2,29.50,NNE,22,0.0,0.0,38,0.00,,,0.00,WUHU21623XXSP,2013-03-24 19:55:00,
2013-03-24 16:00:00,52.0,27.0,29.50,WSW,247,1.8,1.8,38,0.00,,,0.00,WUHU21623XXSP,2013-03-24 20:00:00,
2013-03-24 16:05:00,51.6,27.4,29.50,NE,45,0.0,1.8,39,0.00,,,0.00,WUHU21623XXSP,2013-03-24 20:05:00,
2013-03-24 16:10:00,51.6,27.4,29.50,SW,225,0.0,0.7,39,0.00,,,0.00,WUHU21623XXSP,2013-03-24 20:10:00,
2013-03-24 16:15:00,51.6,26.7,29.50,NE,45,0.0,0.0,38,0.00,,,0.00,WUHU21623XXSP,2013-03-24 20:15:00,
2013-03-24 16:20:00,51.1,26.4,29.49,NE,45,0.0,0.0,38,0.00,,,0.00,WUHU21623XXSP,2013-03-24 20:20:00,
2013-03-24 16:25:00,50.7,25.9,29.49,NW,315,0.9,0.9,38,0.00,,,0.00,WUHU21623XXSP,2013-03-24 20:25:00,
2013-03-24 16:30:00,50.7,25.9,29.49,West,270,0.0,0.9,38,0.00,,,0.00,WUHU21623XXSP,2013-03-24 20:30:00,
2013-03-24 16:35:00,50.9,26.7,29.49,WNW,292,0.0,0.0,39,0.00,,,0.00,WUHU21623XXSP,2013-03-24 20:35:00,
2013-03-24 16:40:00,50.9,26.0,29.49,SW,225,0.0,0.0,38,0.00,,,0.00,WUHU21623XXSP,2013-03-24 20:40:00,
2013-03-24 16:45:00,50.7,25.9,29.50,SSE,157,2.2,2.2,38,0.00,,,0.00,WUHU21623XXSP,2013-03-24 20:45:00,
2013-03-24 16:50:00,50.5,25.7,29.49,WSW,247,0.0,3.6,38,0.00,,,0.00,WUHU21623XXSP,2013-03-24 20:50:00,
2013-03-24 16:55:00,50.5,27.1,29.50,West,270,2.2,3.6,40,0.00,,,0.00,WUHU21623XXSP,2013-03-24 20:55:00,
2013-03-24 17:00:00,50.5,26.4,29.50,West,270,0.0,2.2,39,0.00,,,0.00,WUHU21623XXSP,2013-03-24 21:00:00,
2013-03-24 17:05:00,50.7,27.2,29.50,SSW,202,0.0,4.5,40,0.00,,,0.00,WUHU21623XXSP,2013-03-24 21:05:00,
2013-03-24 17:10:00,50.5,26.4,29.50,North,0,2.9,4.5,39,0.00,,,0.00,WUHU21623XXSP,2013-03-24 21:10:00,
2013-03-24 17:15:00,50.2,25.6,29.49,NNW,337,0.0,2.9,38,0.00,,,0.00,WUHU21623XXSP,2013-03-24 21:15:00,
2013-03-24 17:20:00,49.6,25.8,29.49,North,0,0.0,0.0,39,0.00,,,0.00,WUHU21623XXSP,2013-03-24 21:20:00,
2013-03-24 17:25:00,49.1,25.3,29.49,North,0,0.0,0.0,39,0.00,,,0.00,WUHU21623XXSP,2013-03-24 21:25:00,
2013-03-24 17:30:00,48.9,25.1,29.50,NNE,22,6.0,6.0,39,0.00,,,0.00,WUHU21623XXSP,2013-03-24 21:30:00,
2013-03-24 17:35:00,48.6,24.8,29.49,North,0,0.0,6.0,39,0.00,,,0.00,WUHU21623XXSP,2013-03-24 21:35:00,
2013-03-24 17:40:00,48.4,24.5,29.50,North,0,0.0,0.0,39,0.00,,,0.00,WUHU21623XXSP,2013-03-24 21:40:00,
2013-03-24 17:45:00,48.0,24.8,29.50,NNE,22,0.0,0.0,40,0.00,,,0.00,WUHU21623XXSP,2013-03-24 21:45:00,
2013-03-24 17:50:00,48.0,24.8,29.51,SW,225,0.0,0.0,40,0.00,,,0.00,WUHU21623XXSP,2013-03-24 21:50:00,
2013-03-24 17:55:00,47.8,24.8,29.51,SW,225,0.0,0.0,40,0.00,,,0.00,WUHU21623XXSP,2013-03-24 21:55:00,
2013-03-24 18:00:00,47.7,25.0,29.50,SE,135,0.0,0.0,41,0.00,,,0.00,WUHU21623XXSP,2013-03-24 22:00:00,
2013-03-24 18:05:00,47.5,25.0,29.51,SE,135,0.0,0.0,41,0.00,,,0.00,WUHU21623XXSP,2013-03-24 22:05:00,
2013-03-24 18:10:00,46.9,24.0,29.51,North,0,0.0,0.0,41,0.00,,,0.00,WUHU21623XXSP,2013-03-24 22:10:00,
2013-03-24 18:15:00,46.8,24.2,29.51,North,0,0.0,0.0,41,0.00,,,0.00,WUHU21623XXSP,2013-03-24 22:15:00,
2013-03-24 18:20:00,46.2,23.7,29.51,NNE,22,0.0,0.0,41,0.00,,,0.00,WUHU21623XXSP,2013-03-24 22:20:00,
2013-03-24 18:25:00,45.9,23.4,29.51,NNE,22,0.0,0.0,41,0.00,,,0.00,WUHU21623XXSP,2013-03-24 22:25:00,
2013-03-24 18:30:00,45.3,23.5,29.51,NNE,22,0.0,0.0,42,0.00,,,0.00,WUHU21623XXSP,2013-03-24 22:30:00,
2013-03-24 18:35:00,44.8,23.0,29.51,NNE,22,0.0,1.8,42,0.00,,,0.00,WUHU21623XXSP,2013-03-24 22:35:00,
2013-03-24 18:40:00,44.4,23.2,29.51,NNE,22,0.0,1.8,43,0.00,,,0.00,WUHU21623XXSP,2013-03-24 22:40:00,
2013-03-24 18:45:00,44.2,23.6,29.51,NNE,22,0.0,0.0,44,0.00,,,0.00,WUHU21623XXSP,2013-03-24 22:45:00,
2013-03-24 18:50:00,43.5,23.6,29.52,NNE,22,0.0,0.0,45,0.00,,,0.00,WUHU21623XXSP,2013-03-24 22:50:00,
2013-03-24 18:55:00,43.3,23.3,29.52,NNE,22,0.0,0.0,46,0.00,,,0.00,WUHU21623XXSP,2013-03-24 22:55:00,
2013-03-24 19:00:00,43.0,23.5,29.52,NNE,22,0.0,0.0,46,0.00,,,0.00,WUHU21623XXSP,2013-03-24 23:00:00,
2013-03-24 19:05:00,42.4,23.5,29.51,NNE,22,0.0,0.0,47,0.00,,,0.00,WUHU21623XXSP,2013-03-24 23:05:00,
2013-03-24 19:10:00,42.1,23.2,29.51,NNE,22,0.0,0.0,47,0.00,,,0.00,WUHU21623XXSP,2013-03-24 23:10:00,
2013-03-24 19:15:00,41.7,23.6,29.51,NNE,22,0.0,0.0,48,0.00,,,0.00,WUHU21623XXSP,2013-03-24 23:15:00,
2013-03-24 19:20:00,41.2,23.0,29.51,NNE,22,0.0,0.0,49,0.00,,,0.00,WUHU21623XXSP,2013-03-24 23:20:00,
2013-03-24 19:25:00,40.8,23.6,29.52,NNE,22,0.0,0.0,50,0.00,,,0.00,WUHU21623XXSP,2013-03-24 23:25:00,
2013-03-24 19:30:00,40.3,23.5,29.51,NNE,22,0.0,0.0,51,0.00,,,0.00,WUHU21623XXSP,2013-03-24 23:30:00,
2013-03-24 19:35:00,39.9,23.6,29.52,NNE,22,0.0,0.0,52,0.00,,,0.00,WUHU21623XXSP,2013-03-24 23:35:00,
2013-03-24 19:40:00,39.7,23.4,29.52,NNE,22,0.0,0.0,52,0.00,,,0.00,WUHU21623XXSP,2013-03-24 23:40:00,
2013-03-24 19:45:00,39.4,23.6,29.52,NNE,22,0.0,0.0,53,0.00,,,0.00,WUHU21623XXSP,2013-03-24 23:45:00,
2013-03-24 19:50:00,39.0,23.2,29.52,NNE,22,0.0,0.0,53,0.00,,,0.00,WUHU21623XXSP,2013-03-24 23:50:00,
2013-03-24 19:55:00,38.8,23.1,29.52,NNE,22,0.0,0.0,53,0.00,,,0.00,WUHU21623XXSP,2013-03-24 23:55:00,
2013-03-24 20:00:00,38.8,23.1,29.52,NNE,22,0.0,0.0,53,0.00,,,0.00,WUHU21623XXSP,2013-03-25 00:00:00,
2013-03-24 20:05:00,38.5,23.2,29.51,NNE,22,0.0,0.0,54,0.00,,,0.00,WUHU21623XXSP,2013-03-25 00:05:00,
2013-03-24 20:10:00,38.3,23.6,29.52,NNE,22,0.0,0.0,55,0.00,,,0.00,WUHU21623XXSP,2013-03-25 00:10:00,
2013-03-24 20:15:00,38.1,23.3,29.52,NNE,22,0.0,0.0,55,0.00,,,0.00,WUHU21623XXSP,2013-03-25 00:15:00,
2013-03-24 20:20:00,37.8,23.6,29.52,NNE,22,0.0,0.0,56,0.00,,,0.00,WUHU21623XXSP,2013-03-25 00:20:00,
2013-03-24 20:25:00,37.6,23.2,29.52,NNE,22,0.0,0.0,56,0.00,,,0.00,WUHU21623XXSP,2013-03-25 00:25:00,
2013-03-24 20:30:00,37.2,22.6,29.52,NNE,22,0.0,0.0,55,0.00,,,0.00,WUHU21623XXSP,2013-03-25 00:30:00,
2013-03-24 20:35:00,37.0,22.7,29.52,NNE,22,0.0,0.0,56,0.00,,,0.00,WUHU21623XXSP,2013-03-25 00:35:00,
2013-03-24 20:40:00,36.7,22.9,29.52,NNE,22,0.0,0.0,57,0.00,,,0.00,WUHU21623XXSP,2013-03-25 00:40:00,
2013-03-24 20:45:00,36.7,22.9,29.52,NNE,22,0.0,0.0,57,0.00,,,0.00,WUHU21623XXSP,2013-03-25 00:45:00,
2013-03-24 20:50:00,36.3,22.5,29.52,NNE,22,0.0,0.0,57,0.00,,,0.00,WUHU21623XXSP,2013-03-25 00:50:00,
2013-03-24 20:55:00,36.1,22.8,29.53,NNE,22,0.0,0.0,58,0.00,,,0.00,WUHU21623XXSP,2013-03-25 00:55:00,
2013-03-24 21:00:00,36.1,23.2,29.53,NNE,22,0.0,0.0,59,0.00,,,0.00,WUHU21623XXSP,2013-03-25 01:00:00,
2013-03-24 21:05:00,35.8,22.9,29.55,NNE,22,0.0,0.0,59,0.00,,,0.00,WUHU21623XXSP,2013-03-25 01:05:00,
2013-03-24 21:10:00,35.6,23.2,29.54,NNE,22,0.0,0.0,60,0.00,,,0.00,WUHU21623XXSP,2013-03-25 01:10:00,
2013-03-24 21:15:00,35.4,23.0,29.55,NNE,22,0.0,0.0,60,0.00,,,0.00,WUHU21623XXSP,2013-03-25 01:15:00,
2013-03-24 21:20:00,35.2,22.8,29.55,NNE,22,0.0,0.0,60,0.00,,,0.00,WUHU21623XXSP,2013-03-25 01:20:00,
2013-03-24 21:25:00,35.2,22.8,29.55,NNE,22,0.0,0.0,60,0.00,,,0.00,WUHU21623XXSP,2013-03-25 01:25:00,
2013-03-24 21:31:00,34.9,22.8,29.55,NNE,22,0.0,0.0,61,0.00,,,0.00,WUHU21623XXSP,2013-03-25 01:31:00,
2013-03-24 21:35:00,34.9,23.2,29.55,NNE,22,0.0,0.0,62,0.00,,,0.00,WUHU21623XXSP,2013-03-25 01:35:00,
2013-03-24 21:41:00,34.5,22.8,29.55,NNE,22,0.0,0.0,62,0.00,,,0.00,WUHU21623XXSP,2013-03-25 01:41:00,
2013-03-24 21:46:00,34.3,23.0,29.55,NNE,22,0.0,0.0,63,0.00,,,0.00,WUHU21623XXSP,2013-03-25 01:46:00,
2013-03-24 21:51:00,34.3,23.0,29.55,NNE,22,0.0,0.0,63,0.00,,,0.00,WUHU21623XXSP,2013-03-25 01:51:00,
2013-03-24 21:56:00,34.2,22.8,29.55,NNE,22,0.0,0.0,63,0.00,,,0.00,WUHU21623XXSP,2013-03-25 01:56:00,
2013-03-24 22:01:00,34.0,22.6,29.55,NNE,22,0.0,0.0,63,0.00,,,0.00,WUHU21623XXSP,2013-03-25 02:01:00,
2013-03-24 22:06:00,33.8,22.8,29.55,NNE,22,0.0,0.0,64,0.00,,,0.00,WUHU21623XXSP,2013-03-25 02:06:00,
2013-03-24 22:11:00,33.6,22.7,29.55,NNE,22,0.0,0.0,64,0.00,,,0.00,WUHU21623XXSP,2013-03-25 02:11:00,
2013-03-24 22:16:00,33.6,22.7,29.55,NNE,22,0.0,0.0,64,0.00,,,0.00,WUHU21623XXSP,2013-03-25 02:16:00,
2013-03-24 22:21:00,33.3,22.7,29.55,NNE,22,0.0,0.0,65,0.00,,,0.00,WUHU21623XXSP,2013-03-25 02:21:00,
2013-03-24 22:26:00,33.1,22.5,29.55,NNE,22,0.0,0.0,65,0.00,,,0.00,WUHU21623XXSP,2013-03-25 02:26:00,
2013-03-24 22:31:00,32.9,22.4,29.55,NNE,22,0.0,0.0,65,0.00,,,0.00,WUHU21623XXSP,2013-03-25 02:31:00,
2013-03-24 22:36:00,32.7,22.2,29.55,NNE,22,0.0,0.0,65,0.00,,,0.00,WUHU21623XXSP,2013-03-25 02:36:00,
2013-03-24 22:41:00,32.7,22.2,29.55,NNE,22,0.0,0.0,65,0.00,,,0.00,WUHU21623XXSP,2013-03-25 02:41:00,
2013-03-24 22:46:00,32.7,22.2,29.55,NNE,22,0.0,0.0,65,0.00,,,0.00,WUHU21623XXSP,2013-03-25 02:46:00,
2013-03-24 22:51:00,32.5,22.0,29.54,NNE,22,0.0,0.0,65,0.00,,,0.00,WUHU21623XXSP,2013-03-25 02:51:00,
2013-03-24 22:56:00,32.5,22.4,29.54,NNE,22,0.0,0.0,66,0.00,,,0.00,WUHU21623XXSP,2013-03-25 02:56:00,
2013-03-24 23:01:00,32.4,22.2,29.54,NNE,22,0.0,0.0,66,0.00,,,0.00,WUHU21623XXSP,2013-03-25 03:01:00,
2013-03-24 23:06:00,32.2,22.1,29.54,NNE,22,0.0,0.0,66,0.00,,,0.00,WUHU21623XXSP,2013-03-25 03:06:00,
2013-03-24 23:11:00,32.2,22.1,29.54,NNE,22,0.0,0.0,66,0.00,,,0.00,WUHU21623XXSP,2013-03-25 03:11:00,
2013-03-24 23:16:00,32.2,22.4,29.54,NNE,22,0.0,0.0,67,0.00,,,0.00,WUHU21623XXSP,2013-03-25 03:16:00,
2013-03-24 23:21:00,31.8,22.1,29.54,NNE,22,0.0,0.0,67,0.00,,,0.00,WUHU21623XXSP,2013-03-25 03:21:00,
2013-03-24 23:26:00,31.8,22.1,29.54,NNE,22,0.0,0.0,67,0.00,,,0.00,WUHU21623XXSP,2013-03-25 03:26:00,
2013-03-24 23:31:00,31.8,22.1,29.54,NNE,22,0.0,0.0,67,0.00,,,0.00,WUHU21623XXSP,2013-03-25 03:31:00,
2013-03-24 23:36:00,31.8,22.1,29.54,NNE,22,0.0,0.0,67,0.00,,,0.00,WUHU21623XXSP,2013-03-25 03:36:00,
2013-03-24 23:41:00,31.8,22.1,29.54,NNE,22,0.0,0.0,67,0.00,,,0.00,WUHU21623XXSP,2013-03-25 03:41:00,
2013-03-24 23:46:00,31.8,22.1,29.53,NNE,22,0.0,0.0,67,0.00,,,0.00,WUHU21623XXSP,2013-03-25 03:46:00,
2013-03-24 23:51:00,31.8,22.1,29.53,NNE,22,0.0,0.0,67,0.00,,,0.00,WUHU21623XXSP,2013-03-25 03:51:00,
2013-03-24 23:56:00,31.8,22.1,29.53,NNE,22,0.0,0.0,67,0.00,,,0.00,WUHU21623XXSP,2013-03-25 03:56:00,